EW6013 Weather Reports


time (UTC)temp
C
wind
direction
speed
KPH
gust
KPH
rain 1hr
cm
rain 24hr
cm
rain mn
cm
humidity
%
barometer
mb
20260507051035 11 0.0 0.0 0.03 0.53 0.03 91 1004.5
20260507050515 12 0.0 0.0 0.03 0.53 0.03 91 1004.6
20260507050016 12 0.0 0.0 0.03 0.53 0.03 91 1004.6
20260507045515 12 0.0 0.0 0.03 0.53 0.03 91 1004.6
20260507045015 12 0.0 0.0 0.03 0.53 0.03 90 1004.4
20260507044515 12 0.0 0.0 0.03 0.53 0.03 90 1004.2
20260507044015 12 0.0 0.0 0.03 0.53 0.03 91 1004.1
20260507043515 12 0.0 0.0 0.03 0.53 0.03 91 1004.2
20260507043015 12 0.0 0.0 0.03 0.53 0.03 91 1004.4
20260507042515 12 0.0 0.0 0.03 0.53 0.03 91 1004.4
20260507042015 12 0.0 0.0 0.00 0.51 0.00 91 1004.3
20260507041515 12 0.0 0.0 0.00 0.51 0.00 91 1004.3
20260507041015 12 0.0 0.0 0.00 0.51 0.00 91 1004.3
20260507040516 12 0.0 0.0 0.00 0.51 0.00 90 1004.3
20260507040015 12 0.0 0.0 0.00 0.51 0.51 90 1004.3
20260507035535 13 0.0 0.0 0.00 0.51 0.51 90 1004.3
20260507035015 13 0.0 0.0 0.00 0.51 0.51 90 1004.3
20260507034515 13 0.0 0.0 0.00 0.51 0.51 89 1004.1
20260507034015 13 0.0 0.0 0.00 0.51 0.51 89 1004.0
20260507033515 13 0.0 1.6 0.00 0.51 0.51 90 1003.9
20260507033015 13 284 0.0 1.6 0.00 0.51 0.51 90 1003.7
20260507032515 13 0.0 6.4 0.00 0.51 0.51 90 1003.7
20260507032015 13 281 0.0 6.4 0.00 0.51 0.51 90 1003.6
20260507031515 14 0.0 1.6 0.00 0.51 0.51 91 1003.5
20260507031015 14 289 0.0 1.6 0.00 0.51 0.51 92 1003.4
20260507030515 14 0.0 0.0 0.00 0.51 0.51 91 1003.2
20260507030015 15 0.0 19.3 0.00 0.51 0.51 91 1003.1
20260507025515 15 257 1.6 19.3 0.00 0.51 0.51 92 1003.1
20260507025015 15 272 0.0 19.3 0.00 0.51 0.51 92 1003.2
20260507024515 15 263 1.6 19.3 0.00 0.51 0.51 92 1003.3
20260507024015 15 0.0 0.0 0.00 0.51 0.51 92 1003.3
20260507023515 15 0.0 0.0 0.00 0.51 0.51 92 1003.1
20260507023015 15 0.0 4.8 0.00 0.51 0.51 92 1003.1
20260507022515 15 252 0.0 4.8 0.00 0.51 0.51 92 1003.1
20260507022015 15 0.0 0.0 0.00 0.51 0.51 92 1003.1
20260507021515 15 0.0 0.0 0.00 0.51 0.51 92 1003.0
20260507021035 15 0.0 0.0 0.00 0.51 0.51 92 1002.8
20260507020515 15 0.0 0.0 0.00 0.51 0.51 92 1002.8
20260507020015 15 0.0 0.0 0.00 0.51 0.51 92 1002.6
20260507015515 15 0.0 0.0 0.00 0.51 0.51 92 1002.8
20260507015015 15 0.0 0.0 0.00 0.51 0.51 92 1002.8
20260507014515 15 0.0 0.0 0.00 0.51 0.51 92 1002.7
20260507014015 15 0.0 0.0 0.00 0.51 0.51 92 1002.7
20260507013535 15 0.0 0.0 0.00 0.51 0.51 92 1002.8
20260507013015 15 0.0 0.0 0.00 0.51 0.51 92 1002.8
20260507012515 15 0.0 0.0 0.00 0.51 0.51 92 1002.7
20260507012015 15 0.0 1.6 0.00 0.51 0.51 92 1002.8
20260507011515 15 160 0.0 1.6 0.00 0.51 0.51 92 1002.8
20260507011015 15 0.0 0.0 0.00 0.51 0.51 92 1002.8
20260507010514 15 0.0 0.0 0.03 0.51 0.51 92 1002.8
20260507010017 15 0.0 1.6 0.03 0.51 0.51 92 1002.8
20260507005516 15 194 0.0 1.6 0.03 0.51 0.51 92 1002.8
20260507005017 15 0.0 1.6 0.03 0.51 0.51 92 1002.8
20260507004536 15 200 0.0 1.6 0.03 0.51 0.51 92 1002.7
20260507004037 15 0.0 0.0 0.05 0.51 0.51 92 1002.6
20260507003516 15 0.0 0.0 0.05 0.51 0.51 92 1002.7
20260507003016 15 0.0 0.0 0.05 0.51 0.51 92 1002.6
20260507002517 15 0.0 9.7 0.05 0.51 0.51 92 1002.5
20260507002037 15 195 0.0 9.7 0.05 0.51 0.51 92 1002.5
20260507001516 15 0.0 0.0 0.08 0.51 0.51 92 1002.4
20260507001017 15 0.0 0.0 0.08 0.51 0.51 92 1002.4
20260507000516 15 0.0 1.6 0.05 0.48 0.48 92 1002.5
20260507000017 15 223 0.0 3.2 0.08 0.48 0.48 92 1002.6
20260506235516 15 200 0.0 6.4 0.08 0.48 0.48 92 1002.5
20260506235017 15 222 0.0 6.4 0.08 0.48 0.48 92 1002.4
20260506234517 15 0.0 4.8 0.08 0.48 0.48 92 1002.4
20260506234036 15 189 0.0 4.8 0.08 0.46 0.46 92 1002.4
20260506233516 15 0.0 0.0 0.08 0.46 0.46 92 1002.3
20260506233037 15 0.0 0.0 0.08 0.46 0.46 92 1002.3
20260506232556 15 0.0 0.0 0.10 0.46 0.46 92 1002.3
20260506232016 15 0.0 0.0 0.10 0.46 0.46 92 1002.3
20260506231516 15 0.0 1.6 0.08 0.43 0.43 92 1002.3
20260506231016 15 57 0.0 1.6 0.08 0.43 0.43 92 1002.3
20260506230516 15 0.0 0.0 0.08 0.43 0.43 92 1002.4
20260506230016 15 0.0 0.0 0.08 0.41 0.41 92 1002.4
20260506225536 15 0.0 0.0 0.08 0.41 0.41 92 1002.4
20260506225016 15 0.0 0.0 0.08 0.41 0.41 91 1002.5
20260506224516 15 0.0 0.0 0.10 0.41 0.41 91 1002.6
20260506224036 15 0.0 0.0 0.08 0.38 0.38 91 1002.6
20260506223557 15 0.0 0.0 0.08 0.38 0.38 91 1002.5
20260506223016 15 0.0 0.0 0.08 0.38 0.38 91 1002.5
20260506222516 15 0.0 1.6 0.08 0.36 0.36 91 1002.4
20260506222016 15 188 0.0 1.6 0.08 0.36 0.36 91 1002.4
20260506221536 15 0.0 0.0 0.08 0.36 0.36 91 1002.6
20260506221016 15 0.0 0.0 0.08 0.36 0.36 91 1002.6
20260506220516 15 0.0 1.6 0.08 0.36 0.36 91 1002.7
20260506220016 15 156 0.0 8.0 0.05 0.33 0.33 91 1002.7
20260506215516 15 249 0.0 8.0 0.08 0.33 0.33 91 1002.6
20260506215016 15 259 0.0 4.8 0.08 0.33 0.33 91 1002.6
20260506214516 15 200 0.0 14.5 0.05 0.30 0.30 91 1002.7
20260506214016 15 184 0.0 14.5 0.08 0.30 0.30 91 1002.7
20260506213516 15 0.0 0.0 0.08 0.30 0.30 91 1002.7
20260506213036 15 0.0 3.2 0.10 0.30 0.30 91 1002.7
20260506212516 15 215 0.0 3.2 0.08 0.28 0.28 91 1002.7
20260506212016 16 0.0 0.0 0.08 0.28 0.28 91 1002.8
20260506211516 16 0.0 0.0 0.10 0.28 0.28 91 1002.9
20260506211016 16 0.0 0.0 0.10 0.28 0.28 91 1003.0
20260506210536 16 0.0 11.3 0.13 0.28 0.28 91 1003.0
20260506210016 16 234 0.0 11.3 0.13 0.28 0.28 91 1003.1
20260506205516 16 0.0 0.0 0.10 0.25 0.25 91 1003.1
20260506205016 16 0.0 1.6 0.10 0.25 0.25 91 1003.2
20260506204516 16 189 0.0 4.8 0.10 0.25 0.25 91 1003.3
20260506204016 16 156 0.0 4.8 0.08 0.23 0.23 90 1003.3
20260506203516 16 0.0 1.6 0.08 0.23 0.23 90 1003.4
20260506203016 16 155 0.0 9.7 0.05 0.20 0.20 90 1003.3
20260506202516 16 177 0.0 12.9 0.05 0.20 0.20 90 1003.3
20260506202016 16 206 0.0 12.9 0.05 0.20 0.20 89 1003.3
20260506201536 16 158 0.0 3.2 0.03 0.18 0.18 90 1003.4
20260506201016 16 0.0 0.0 0.03 0.18 0.18 89 1003.4
20260506200516 16 0.0 0.0 0.00 0.15 0.15 89 1003.4
20260506200016 16 0.0 1.6 0.03 0.15 0.15 89 1003.4
20260506195516 16 199 0.0 1.6 0.03 0.15 0.15 89 1003.5
20260506195016 16 0.0 0.0 0.03 0.15 0.15 89 1003.5
20260506194516 16 0.0 0.0 0.05 0.15 0.15 89 1003.5
20260506194016 16 0.0 0.0 0.05 0.15 0.15 89 1003.5
20260506193536 16 0.0 0.0 0.05 0.15 0.15 89 1003.5
20260506193016 16 0.0 11.3 0.08 0.15 0.15 89 1003.4
20260506192516 17 222 0.0 11.3 0.08 0.15 0.15 90 1003.5
20260506192016 17 179 0.0 3.2 0.10 0.15 0.15 90 1003.5
20260506191516 17 0.0 0.0 0.10 0.15 0.15 89 1003.5
20260506191016 17 0.0 0.0 0.13 0.15 0.15 89 1003.4
20260506190516 17 0.0 0.0 0.13 0.15 0.15 89 1003.3
20260506190016 17 0.0 0.0 0.13 0.13 0.13 88 1003.4
20260506185516 17 0.0 1.6 0.13 0.13 0.13 88 1003.5
20260506185016 17 229 0.0 1.6 0.13 0.13 0.13 87 1003.6
20260506184516 17 0.0 0.0 0.10 0.10 0.10 86 1003.6
20260506184016 17 0.0 0.0 0.10 0.10 0.10 85 1003.8
20260506183536 17 0.0 1.6 0.10 0.10 0.10 84 1003.8
20260506183016 18 172 0.0 3.2 0.08 0.08 0.08 83 1003.8
20260506182516 18 168 0.0 3.2 0.08 0.08 0.08 82 1004.0
20260506182016 18 0.0 3.2 0.05 0.05 0.05 81 1004.1
20260506181516 19 189 0.0 3.2 0.05 0.05 0.05 78 1004.1
20260506181016 20 203 0.0 4.8 0.03 0.03 0.03 75 1004.2
20260506180536 20 257 0.0 17.7 0.03 0.03 0.03 72 1004.2
20260506180036 20 244 1.6 24.1 0.00 0.00 0.00 69 1004.1
20260506175516 21 232 3.2 24.1 0.00 0.00 0.00 67 1004.0
20260506175016 21 242 0.0 8.0 0.00 0.00 0.00 64 1003.9
20260506174536 21 220 0.0 8.0 0.00 0.00 0.00 62 1003.9
20260506174016 21 246 0.0 1.6 0.00 0.00 0.00 61 1003.8
20260506173536 21 0.0 1.6 0.00 0.00 0.00 61 1003.9
20260506173016 21 243 0.0 30.6 0.00 0.00 0.00 60 1003.9
20260506172536 21 216 6.4 30.6 0.00 0.00 0.00 60 1003.9
20260506172015 22 0.0 22.5 0.00 0.00 0.00 60 1003.7
20260506171516 22 237 0.0 22.5 0.00 0.00 0.00 59 1003.7
20260506171015 22 212 0.0 3.2 0.00 0.00 0.00 59 1003.7
20260506170515 22 0.0 16.1 0.00 0.00 0.00 60 1003.8
20260506170016 22 244 0.0 16.1 0.00 0.00 0.00 60 1003.9
20260506165515 22 240 0.0 4.8 0.00 0.00 0.00 61 1004.0
20260506165016 22 169 0.0 16.1 0.00 0.00 0.00 62 1004.0
20260506164515 21 222 0.0 16.1 0.00 0.00 0.00 63 1004.1
20260506164015 21 196 0.0 8.0 0.00 0.00 0.00 62 1004.2
20260506163515 21 208 0.0 8.0 0.00 0.00 0.00 64 1004.2
20260506163015 21 0.0 14.5 0.00 0.00 0.00 64 1004.4
20260506162556 21 206 0.0 14.5 0.00 0.00 0.00 64 1004.5
20260506162015 21 178 0.0 3.2 0.00 0.00 0.00 65 1004.5
20260506161616 21 0.0 9.7 0.00 0.00 0.00 66 1004.6
20260506161015 21 221 0.0 9.7 0.00 0.00 0.00 65 1004.6
20260506160515 21 242 0.0 1.6 0.00 0.00 0.00 66 1004.7
20260506160036 21 0.0 0.0 0.00 0.00 0.00 67 1004.9
20260506155515 21 0.0 0.0 0.00 0.00 0.00 67 1005.0
20260506155015 20 0.0 3.2 0.00 0.00 0.00 68 1005.0
20260506154515 20 207 0.0 3.2 0.00 0.00 0.00 68 1005.2
20260506154015 20 240 0.0 3.2 0.00 0.00 0.00 69 1005.2
20260506153515 20 0.0 1.6 0.00 0.00 0.00 68 1005.3
20260506153015 20 186 0.0 1.6 0.00 0.00 0.00 69 1005.3
20260506152515 20 0.0 0.0 0.00 0.00 0.00 68 1005.5
20260506152035 20 0.0 0.0 0.00 0.00 0.00 68 1005.6
20260506151515 20 0.0 0.0 0.00 0.00 0.00 69 1005.6
20260506151015 20 0.0 12.9 0.00 0.00 0.00 69 1005.7
20260506150515 20 213 1.6 12.9 0.00 0.00 0.00 69 1005.8
20260506150035 20 230 0.0 8.0 0.00 0.00 0.00 69 1005.7
20260506145515 20 0.0 8.0 0.00 0.00 0.00 70 1005.6
20260506145015 20 210 0.0 14.5 0.00 0.00 0.00 71 1005.7
20260506144515 20 246 0.0 14.5 0.00 0.00 0.00 70 1005.8
20260506144015 20 248 0.0 3.2 0.00 0.00 0.00 70 1005.9
20260506143515 20 226 0.0 1.6 0.00 0.00 0.00 71 1005.8
20260506143035 20 0.0 0.0 0.00 0.00 0.00 71 1005.8
20260506142515 20 0.0 4.8 0.00 0.00 0.00 73 1005.7
20260506142015 20 247 0.0 14.5 0.00 0.00 0.00 72 1005.7
20260506141515 20 152 0.0 17.7 0.00 0.00 0.00 71 1005.6
20260506141015 20 235 1.6 17.7 0.00 0.00 0.00 72 1005.5
20260506140515 19 227 0.0 8.0 0.00 0.00 0.00 72 1005.4
20260506140035 19 315 0.0 1.6 0.00 0.00 0.00 73 1005.3
20260506135515 19 0.0 0.0 0.00 0.00 0.00 74 1005.5
20260506135015 18 0.0 0.0 0.00 0.00 0.00 75 1005.6
20260506134515 18 0.0 1.6 0.00 0.00 0.00 74 1005.5
20260506134015 18 179 0.0 1.6 0.00 0.00 0.00 75 1005.6
20260506133515 18 0.0 0.0 0.00 0.00 0.00 75 1005.7
20260506133035 18 0.0 0.0 0.00 0.00 0.00 75 1005.8
20260506132515 18 0.0 0.0 0.00 0.00 0.00 75 1005.9
20260506132015 18 0.0 0.0 0.00 0.00 0.00 75 1006.0
20260506131515 18 0.0 0.0 0.00 0.00 0.00 76 1006.2
20260506131015 18 0.0 0.0 0.00 0.00 0.00 77 1006.2
20260506130515 18 0.0 0.0 0.00 0.00 0.00 76 1006.2
20260506130055 18 0.0 0.0 0.00 0.00 0.00 76 1006.2
20260506125535 17 0.0 0.0 0.00 0.00 0.00 77 1006.2
20260506125015 17 0.0 0.0 0.00 0.00 0.00 77 1006.2
20260506124515 17 0.0 0.0 0.00 0.00 0.00 77 1006.3
20260506124015 17 0.0 0.0 0.00 0.00 0.00 77 1006.2
20260506123515 17 0.0 0.0 0.00 0.00 0.00 78 1006.1
20260506123015 17 0.0 0.0 0.00 0.00 0.00 79 1006.0
20260506122515 17 0.0 0.0 0.00 0.00 0.00 80 1006.0
20260506122035 16 0.0 0.0 0.00 0.00 0.00 80 1006.0
20260506121515 16 0.0 0.0 0.00 0.00 0.00 80 1006.2
20260506121015 16 0.0 0.0 0.00 0.00 0.00 80 1006.5
20260506120515 16 0.0 0.0 0.00 0.00 0.00 80 1006.4
20260506120015 16 0.0 0.0 0.00 0.00 0.00 81 1006.3
20260506115515 16 0.0 0.0 0.00 0.00 0.00 82 1006.3
20260506115015 16 0.0 0.0 0.00 0.00 0.00 82 1006.3
20260506114535 16 0.0 0.0 0.00 0.00 0.00 81 1006.5
20260506114015 16 0.0 0.0 0.00 0.00 0.00 81 1006.6
20260506113535 16 0.0 0.0 0.00 0.00 0.00 81 1006.6
20260506113015 16 0.0 0.0 0.00 0.00 0.00 81 1006.7
20260506112515 16 0.0 0.0 0.00 0.00 0.00 81 1006.6
20260506112015 16 0.0 0.0 0.00 0.00 0.00 81 1006.7
20260506111515 15 0.0 0.0 0.00 0.00 0.00 81 1006.8
20260506111015 15 0.0 0.0 0.00 0.00 0.00 82 1006.8
20260506110515 15 0.0 0.0 0.00 0.00 0.00 82 1006.7
20260506110015 15 0.0 0.0 0.00 0.00 0.00 83 1006.6
20260506105515 15 0.0 0.0 0.00 0.00 0.00 83 1006.5
20260506105035 15 0.0 0.0 0.00 0.00 0.00 83 1006.7
20260506104535 15 0.0 0.0 0.00 0.00 0.00 83 1006.7
20260506104017 15 0.0 0.0 0.00 0.00 0.00 83 1006.7
20260506103517 15 0.0 0.0 0.00 0.00 0.00 83 1006.7
20260506103017 15 0.0 0.0 0.00 0.00 0.00 83 1006.6
20260506102517 15 0.0 0.0 0.00 0.00 0.00 83 1006.5
20260506102017 15 0.0 0.0 0.00 0.00 0.00 83 1006.5
20260506101516 15 0.0 0.0 0.00 0.00 0.00 83 1006.5
20260506101017 15 0.0 0.0 0.00 0.00 0.00 83 1006.5
20260506100516 15 0.0 0.0 0.00 0.00 0.00 83 1006.6
20260506100036 15 0.0 0.0 0.00 0.00 0.00 83 1006.6
20260506095516 15 0.0 0.0 0.00 0.00 0.00 82 1006.6
20260506095017 15 0.0 0.0 0.00 0.00 0.00 82 1006.5
20260506094516 15 0.0 0.0 0.00 0.00 0.00 82 1006.5
20260506094017 15 0.0 0.0 0.00 0.00 0.00 82 1006.5
20260506093517 15 0.0 0.0 0.00 0.00 0.00 81 1006.4
20260506093016 15 0.0 0.0 0.00 0.00 0.00 81 1006.3
20260506092517 15 0.0 0.0 0.00 0.00 0.00 81 1006.3
20260506092016 15 0.0 0.0 0.00 0.00 0.00 81 1006.5
20260506091516 15 0.0 0.0 0.00 0.00 0.00 81 1006.5
20260506091037 15 0.0 0.0 0.00 0.00 0.00 81 1006.4
20260506090536 15 0.0 0.0 0.00 0.00 0.00 80 1006.4
20260506090017 15 0.0 0.0 0.00 0.00 0.00 80 1006.4
20260506085516 15 0.0 0.0 0.00 0.00 0.00 80 1006.4
20260506085016 15 0.0 0.0 0.00 0.00 0.00 80 1006.4
20260506084516 15 0.0 0.0 0.00 0.00 0.00 80 1006.4
20260506084057 15 0.0 0.0 0.00 0.00 0.00 80 1006.5
20260506083516 15 0.0 0.0 0.00 0.00 0.00 79 1006.5
20260506083017 15 0.0 0.0 0.00 0.00 0.00 79 1006.5
20260506082516 15 0.0 0.0 0.00 0.00 0.00 79 1006.5
20260506082016 15 0.0 0.0 0.00 0.00 0.00 79 1006.4
20260506081516 15 0.0 0.0 0.00 0.00 0.00 78 1006.4
20260506081037 15 0.0 0.0 0.00 0.00 0.00 78 1006.4
20260506080516 15 0.0 0.0 0.00 0.00 0.00 78 1006.3
20260506073516 15 0.0 0.0 0.00 0.00 0.00 77 1006.4
20260506073036 15 0.0 0.0 0.00 0.00 0.00 76 1006.4
20260506072516 15 0.0 0.0 0.00 0.00 0.00 76 1006.3
20260506072016 15 0.0 0.0 0.00 0.00 0.00 76 1006.3
20260506071516 15 0.0 0.0 0.00 0.00 0.00 76 1006.2
20260506071036 15 0.0 0.0 0.00 0.00 0.00 75 1006.2
20260506070516 16 0.0 0.0 0.00 0.00 0.00 74 1006.1
20260506062516 16 0.0 0.0 0.00 0.00 0.00 72 1006.1
20260506062016 16 0.0 0.0 0.00 0.00 0.00 72 1006.1
20260506061516 16 0.0 0.0 0.00 0.00 0.00 72 1006.1
20260506061016 16 0.0 0.0 0.00 0.00 0.00 72 1006.1
20260506060556 16 0.0 0.0 0.00 0.00 0.00 72 1006.0